STARLINK-4446, 53505

Orbit data source: Space-Track

STARLINK-4446, 53505 is a payload satellite owned by SpaceX/Seattle (US) in SSO that was launched on Fri, 12 Aug 2022 UTC via an FALCON 9 launch vehicle from the Air Force Western Test Range (AFWTR). Payload-class satellites include a variety of spacecraft equipped with specific instruments for various scientific and technological missions. These include communications satellites like Starlink; space stations such as the ISS; scientific satellites like the Hubble; Earth observation satellites from companies like Planet Labs, Umbra, and HawkEye 360; GPS; miniature CubeSats for education and research; and military/defense satellites.

Loading next visibility...
Identifier
53505, 2022-099AS
Orbit
SSO
Country
Flag of USUS
Related business
Manufacturer
SpaceX/Seattle
Mission
Partially operational Commercial Communications
Bus & Motor
STARLINK, Unknown motor
Mass
300 kg wet, ~275 kg dry
Launch date (UTC)
2022-08-12 (4 years ago)
Launch vehicle
FALCON 9
Launch site
Air Force Western Test Range (AFWTR)
Object type
Payload
Rocket body
Debris
Shape & HBR
Box + 1 Pan, 10.1 m
Radar Cross Section
13.562 m², Large (>1 m²)

Expand to show TLE details & history
Last TLE update: 2 days ago

TLE from 2 days ago
0 STARLINK-4446
1 53505U 22099AS  26171.35693021  .00078349  00000-0  44126-3 0  9997
2 53505  97.6065 302.6613 0003762 206.3026 153.8049 15.78972255212153
Epoch: 2026-06-20T08:33Z
TLE epoch observation values (Epoch: 2026-06-20T08:33:58.770Z)
Latitude
-0.00009°
Longitude
-94.40628°
Altitude
338.782 km
Speed
7.704 km/s
True Right ascension
20h 10m 38s
True Declination
0° 00' 00"
Sunlit
Object was in full shadow at epoch
Visualization orbit readout
Latitude
Unknown
Longitude
Unknown
Altitude
Unknown
Speed
Unknown
Apparent Right ascension
Unknown
Apparent Declination
Unknown
Sunlit
N/A
Visualization observer readout
Local Sidereal Time
00:51:25
Azimuth
Unknown
Elevation
Unknown
Doppler factor
Unknown
Orbital elements
Apogee altitude
332.772 km
Perigee altitude
327.724 km
Semi-major axis
6,708.385 km
Eccentricity
0.00038
Inclination
97.6065°
RAAN
302.6613°
Arg. of periapsis
206.3026°
True anomaly
153.82392°
Mean anomaly
153.8049°
Eccentric anomaly
153.81441°
Mean motion
3.95017 °/min
Orbital period
91.14 mins
BSTAR
0.00044126
Loading maneuver chart data...
Computing Atmospheric mass density...

Documentation

Showing up to 5 results
|